Total_Precipitation_Accumulation
0.36 0.38 0.41 0.42 0.42 0.43 0.41 0.38 0.35 0.34 0.34 0.33 0.31 0.29 0.27 0.26 0.25 0.25 0.22 0.19 0.17 0.15 0.14 0.14 0.14 0.15 0.16 0.16 0.18 0.22 0.26 0.37 0.42 0.25 0.17 0.20 0.26 0.29 0.34 0.39 0.40 0.43 0.55
0.24 0.23 0.25 0.27 0.27 0.26 0.28 0.30 0.28 0.27 0.27 0.26 0.23 0.23 0.21 0.19 0.18 0.17 0.15 0.13 0.13 0.13 0.14 0.15 0.15 0.15 0.17 0.18 0.22 0.25 0.29 0.39 0.52 0.44 0.31 0.34 0.38 0.41 0.51 0.54 0.49 0.44 0.52
0.19 0.18 0.18 0.19 0.19 0.19 0.20 0.20 0.20 0.20 0.20 0.20 0.19 0.20 0.17 0.15 0.14 0.14 0.14 0.12 0.12 0.13 0.15 0.17 0.17 0.20 0.22 0.25 0.33 0.37 0.40 0.44 0.56 0.59 0.47 0.48 0.53 0.60 0.73 0.68 0.57 0.54 0.45
0.17 0.15 0.15 0.16 0.17 0.17 0.17 0.18 0.18 0.19 0.20 0.21 0.19 0.18 0.16 0.13 0.11 0.10 0.09 0.09 0.11 0.13 0.16 0.20 0.24 0.29 0.34 0.39 0.40 0.41 0.46 0.52 0.57 0.64 0.60 0.62 0.67 0.73 0.78 0.78 0.65 0.56 0.52
0.17 0.17 0.19 0.21 0.23 0.23 0.23 0.23 0.22 0.23 0.21 0.20 0.18 0.15 0.13 0.11 0.07 0.05 0.04 0.06 0.10 0.13 0.16 0.19 0.24 0.33 0.39 0.38 0.37 0.39 0.49 0.60 0.63 0.70 0.71 0.68 0.67 0.75 0.77 0.68 0.59 0.50 0.44
0.30 0.32 0.32 0.31 0.30 0.30 0.29 0.28 0.28 0.26 0.22 0.18 0.14 0.11 0.09 0.05 0.05 0.05 0.05 0.07 0.12 0.17 0.20 0.20 0.19 0.22 0.22 0.22 0.29 0.35 0.45 0.63 0.84 0.94 0.84 0.73 0.60 0.60 0.63 0.60 0.60 0.55 0.46
0.45 0.42 0.38 0.35 0.34 0.31 0.28 0.29 0.27 0.22 0.17 0.13 0.10 0.07 0.07 0.05 0.03 0.04 0.05 0.07 0.14 0.21 0.24 0.22 0.17 0.13 0.16 0.20 0.25 0.30 0.41 0.58 0.80 1.06 1.05 0.78 0.69 0.64 0.67 0.66 0.65 0.67 0.59
0.47 0.44 0.37 0.30 0.27 0.26 0.27 0.24 0.18 0.14 0.12 0.10 0.07 0.05 0.07 0.04 0.02 0.02 0.03 0.06 0.12 0.18 0.21 0.21 0.21 0.20 0.20 0.24 0.25 0.29 0.39 0.56 0.70 0.79 1.02 0.84 0.67 0.65 0.66 0.65 0.67 0.63 0.50
0.42 0.34 0.25 0.20 0.19 0.18 0.16 0.13 0.12 0.12 0.11 0.08 0.05 0.05 0.07 0.06 0.02 0.01 0.02 0.04 0.08 0.12 0.15 0.16 0.15 0.18 0.21 0.32 0.40 0.50 0.60 0.77 0.83 0.96 1.12 1.08 0.96 0.86 0.72 0.67 0.67 0.59 0.49
0.25 0.19 0.16 0.14 0.10 0.08 0.09 0.10 0.10 0.10 0.08 0.06 0.04 0.05 0.07 0.08 0.02 0.00 0.01 0.03 0.06 0.07 0.10 0.15 0.16 0.16 0.25 0.41 0.57 0.70 0.81 0.94 0.89 0.97 1.17 1.22 1.07 1.04 1.04 0.88 0.74 0.60 0.52
0.13 0.11 0.09 0.07 0.05 0.04 0.07 0.09 0.09 0.07 0.07 0.07 0.06 0.06 0.07 0.05 0.03 0.00 0.01 0.02 0.04 0.05 0.09 0.18 0.26 0.25 0.32 0.52 0.71 0.79 0.96 1.04 1.01 0.96 0.91 0.90 0.95 0.95 0.91 0.87 0.72 0.56 0.47
0.07 0.06 0.04 0.03 0.02 0.03 0.07 0.09 0.08 0.09 0.09 0.07 0.07 0.06 0.06 0.07 0.04 0.01 0.00 0.01 0.04 0.09 0.19 0.27 0.35 0.35 0.41 0.61 0.77 0.96 1.16 1.25 1.09 0.96 0.77 0.67 0.65 0.67 0.69 0.65 0.57 0.47 0.41
0.08 0.07 0.05 0.04 0.04 0.04 0.07 0.08 0.08 0.09 0.08 0.06 0.06 0.05 0.05 0.07 0.06 0.01 0.01 0.02 0.04 0.11 0.24 0.34 0.39 0.41 0.57 0.84 1.05 1.21 1.32 1.28 1.16 0.93 0.71 0.64 0.57 0.53 0.54 0.57 0.54 0.45 0.39
0.09 0.08 0.07 0.07 0.07 0.06 0.07 0.05 0.06 0.06 0.06 0.06 0.06 0.07 0.07 0.08 0.06 0.04 0.04 0.05 0.07 0.12 0.24 0.38 0.49 0.56 0.73 1.00 1.20 1.34 1.36 1.24 1.04 0.86 0.73 0.69 0.61 0.54 0.53 0.47 0.42 0.36 0.35
0.08 0.07 0.06 0.07 0.08 0.08 0.07 0.03 0.02 0.04 0.02 0.04 0.07 0.08 0.10 0.09 0.06 0.07 0.09 0.09 0.11 0.15 0.24 0.35 0.46 0.58 0.78 0.97 1.14 1.22 1.21 1.11 0.98 0.77 0.65 0.66 0.65 0.58 0.54 0.45 0.36 0.28 0.27
0.08 0.07 0.05 0.05 0.06 0.07 0.10 0.08 0.02 0.01 0.01 0.02 0.03 0.05 0.06 0.06 0.05 0.07 0.10 0.13 0.17 0.22 0.29 0.37 0.47 0.61 0.80 0.98 1.09 1.08 1.01 0.93 0.82 0.68 0.60 0.56 0.56 0.53 0.51 0.43 0.33 0.27 0.27
0.05 0.06 0.04 0.04 0.05 0.06 0.09 0.14 0.12 0.07 0.04 0.04 0.03 0.04 0.04 0.04 0.05 0.07 0.11 0.16 0.18 0.24 0.28 0.40 0.52 0.65 0.80 0.94 1.00 0.98 0.94 0.84 0.73 0.64 0.57 0.52 0.47 0.45 0.40 0.35 0.30 0.27 0.25
0.05 0.03 0.02 0.04 0.05 0.06 0.08 0.10 0.11 0.13 0.15 0.15 0.08 0.04 0.04 0.05 0.07 0.08 0.11 0.15 0.18 0.23 0.34 0.49 0.59 0.66 0.73 0.80 0.86 0.90 0.90 0.82 0.71 0.63 0.59 0.54 0.47 0.39 0.32 0.27 0.23 0.21 0.20
0.04 0.06 0.04 0.03 0.03 0.04 0.05 0.07 0.07 0.09 0.12 0.13 0.12 0.09 0.08 0.09 0.11 0.14 0.15 0.17 0.23 0.32 0.41 0.52 0.60 0.66 0.67 0.67 0.71 0.76 0.77 0.75 0.67 0.61 0.58 0.55 0.47 0.37 0.28 0.21 0.17 0.11 0.13
0.03 0.01 0.02 0.02 0.02 0.02 0.04 0.05 0.05 0.08 0.11 0.13 0.14 0.11 0.12 0.17 0.19 0.21 0.20 0.20 0.26 0.34 0.41 0.49 0.55 0.59 0.56 0.56 0.57 0.59 0.61 0.62 0.58 0.55 0.52 0.50 0.41 0.30 0.23 0.18 0.16 0.13 0.12
0.02 0.01 0.01 0.01 0.02 0.02 0.03 0.03 0.04 0.06 0.09 0.13 0.15 0.13 0.19 0.23 0.26 0.28 0.30 0.30 0.32 0.36 0.40 0.41 0.43 0.46 0.45 0.44 0.43 0.45 0.48 0.52 0.53 0.54 0.51 0.45 0.35 0.26 0.21 0.16 0.13 0.10 0.09
0.01 0.01 0.01 0.01 0.01 0.01 0.01 0.02 0.03 0.04 0.07 0.10 0.13 0.14 0.22 0.24 0.26 0.30 0.34 0.37 0.38 0.38 0.37 0.36 0.37 0.38 0.37 0.37 0.36 0.36 0.39 0.42 0.48 0.52 0.52 0.44 0.32 0.24 0.18 0.14 0.11 0.09 0.08
0.00 0.00 0.00 0.00 0.00 0.00 0.00 0.01 0.02 0.03 0.05 0.07 0.10 0.13 0.18 0.24 0.30 0.35 0.37 0.37 0.38 0.37 0.33 0.30 0.32 0.34 0.33 0.30 0.29 0.31 0.33 0.36 0.42 0.48 0.50 0.43 0.31 0.22 0.17 0.14 0.11 0.10 0.07
0.00 0.00 0.00 0.00 0.00 0.00 0.00 0.01 0.01 0.02 0.03 0.05 0.08 0.11 0.16 0.22 0.30 0.38 0.42 0.41 0.39 0.38 0.35 0.33 0.32 0.31 0.27 0.23 0.21 0.20 0.21 0.26 0.35 0.43 0.43 0.39 0.30 0.21 0.14 0.12 0.11 0.09 0.08
0.00 0.00 0.00 0.00 0.00 0.00 0.00 0.01 0.01 0.02 0.02 0.03 0.05 0.07 0.11 0.15 0.21 0.30 0.38 0.43 0.43 0.43 0.39 0.37 0.36 0.32 0.26 0.19 0.14 0.12 0.17 0.24 0.29 0.33 0.37 0.34 0.26 0.19 0.15 0.13 0.10 0.06 0.06
0.00 0.00 0.00 0.00 0.00 0.00 0.00 0.00 0.00 0.01 0.01 0.01 0.02 0.03 0.05 0.08 0.12 0.18 0.25 0.32 0.37 0.42 0.46 0.49 0.46 0.36 0.26 0.19 0.17 0.17 0.18 0.19 0.19 0.20 0.25 0.28 0.21 0.17 0.15 0.13 0.07 0.05 0.05